Location: Sweet Grass
(48.9965°N, 111.9649°W)
Time: 07:14:42
(UTC+00:00)

DIWATA 2B (PO-101) - Pass Details

Date: 07 April 2023
Orbit: 581 x 594 km, 98.0° (Epoch: 03 June)

Event Time Altitude Azimuth Distance (km) Brightness Sun altitude
Exits shadow 10:34:39 23° 305° (NW) 1,251 ? -21.2°
Drops below altitude 10° 10:36:43 10° 328° (NNW) 1,912 ? -21.0°
Sets 10:39:04 0° 338° (NNW) 2,819 ? -20.7°
